Probability
1 4 11 16 17 16 14 13 12 11 10 7 6 7 9 10 9 9 8 6 4 2 1 0 0 0 0 0 0 0 0 0 0 0 1 0 0 0 0 0 1 3 3
1 4 11 17 20 19 18 16 15 12 9 7 6 8 9 9 8 8 8 8 5 2 1 0 0 0 1 1 1 1 0 0 0 0 1 0 0 0 0 1 2 4 4
5 7 12 19 22 21 19 17 14 10 6 5 6 8 9 9 9 9 10 10 7 4 2 2 1 1 1 2 2 2 1 0 0 0 0 0 0 0 0 1 3 4 5
11 11 14 18 22 21 17 14 12 9 6 5 6 7 8 10 10 10 12 11 9 6 3 2 2 1 1 1 1 1 1 0 0 0 0 0 0 1 2 3 4 4 4
13 13 14 17 20 20 17 15 14 13 11 9 8 7 8 9 9 10 10 9 8 7 5 3 2 1 1 0 0 0 0 1 1 0 0 0 0 2 6 8 6 4 4
14 14 16 19 21 21 20 17 16 16 15 14 13 12 9 7 8 8 8 7 7 7 5 4 3 2 1 0 0 1 1 2 2 0 0 0 1 4 9 11 8 6 6
14 15 18 23 24 23 22 20 17 17 18 18 18 16 10 7 7 8 7 6 6 6 5 3 2 1 1 0 1 2 3 3 2 1 0 0 1 6 11 13 11 9 7
15 16 20 24 24 23 24 23 21 20 20 19 19 16 10 6 6 7 7 6 6 5 4 3 1 1 0 1 2 3 2 1 1 1 0 0 2 7 12 14 13 10 8
16 18 21 22 21 22 23 24 25 25 24 21 17 14 10 6 4 5 6 6 6 6 6 5 3 2 2 2 2 2 1 0 0 0 0 0 3 9 13 13 12 10 8
20 21 23 22 20 18 19 20 24 26 25 21 17 13 10 6 4 4 6 6 7 7 8 7 5 4 4 3 3 2 1 0 0 0 0 1 6 11 14 13 11 9 9
21 22 23 23 19 16 15 16 20 21 21 19 15 12 9 6 4 4 5 6 6 6 6 6 5 5 5 4 3 3 2 1 0 0 0 3 8 13 15 12 10 9 8
21 21 21 21 18 15 14 14 17 17 17 16 14 11 9 6 4 5 5 5 5 4 4 4 4 4 4 4 4 3 2 1 1 0 1 5 11 15 16 15 12 10 10
20 18 17 16 14 12 12 15 17 16 14 12 13 12 10 7 5 5 5 6 6 5 4 4 4 4 4 5 6 4 3 2 2 1 2 6 12 15 17 18 16 14 14
20 17 14 12 10 9 11 14 15 14 10 9 12 13 11 8 6 5 6 7 7 5 4 4 4 5 5 7 8 6 4 3 3 2 3 7 12 15 17 18 18 17 17
21 17 13 12 11 10 11 12 11 8 6 7 10 12 11 9 8 7 8 9 6 4 3 4 4 4 4 6 7 7 5 4 4 3 3 6 12 16 18 18 17 17 17
19 15 13 14 13 13 12 9 7 5 4 5 8 9 9 9 8 8 9 10 7 3 3 4 3 3 3 3 4 5 4 4 4 3 3 5 11 17 19 18 16 15 15
15 13 13 14 14 13 11 8 6 5 5 5 6 7 7 6 5 6 7 8 7 6 5 5 4 2 1 1 1 2 3 3 3 4 4 5 8 12 15 15 14 13 13
10 10 11 13 14 14 11 8 7 7 6 7 7 7 6 5 4 3 4 5 5 6 6 5 5 3 1 0 0 1 1 1 2 4 5 5 5 7 8 10 12 13 12
8 8 9 12 14 14 11 9 9 8 6 6 7 7 6 5 4 4 4 4 4 4 4 5 5 4 1 0 0 0 0 0 1 2 3 3 3 3 4 6 10 11 11
8 8 9 11 13 13 12 10 10 8 6 5 6 6 6 5 4 5 5 4 3 3 4 4 4 3 1 1 1 0 0 0 0 1 1 1 1 1 2 3 7 9 9
9 9 10 11 13 13 12 10 9 8 7 6 5 6 6 5 5 5 4 3 3 4 4 4 3 1 1 2 1 0 0 0 0 0 0 1 1 1 2 2 4 7 8
8 9 11 13 13 13 12 10 9 8 8 5 3 3 5 5 4 4 3 3 3 3 3 2 1 0 1 1 1 0 0 0 0 0 0 0 1 2 3 3 3 5 6
8 9 11 12 13 12 11 10 9 8 6 3 1 1 3 3 3 4 5 5 4 4 4 2 1 0 0 0 0 0 0 0 0 0 0 0 0 1 2 2 1 2 3
9 9 10 12 13 12 11 10 10 8 4 1 0 0 1 1 2 5 7 7 5 5 5 4 2 1 0 0 0 0 0 0 0 0 0 0 0 0 0 0 0 1 2
10 9 10 12 13 12 10 10 11 9 5 3 1 0 0 1 2 4 5 6 5 6 6 5 3 2 1 0 0 0 0 0 0 0 0 0 0 0 0 0 0 0 1
10 9 11 13 12 12 10 9 9 9 6 4 2 1 0 1 2 3 4 5 4 5 5 5 4 3 2 1 0 0 0 0 0 0 0 0 0 0 0 0 0 0 0
Wind_Speed
5 7 12 13 14 15 15 16 15 15 15 15 15 15 15 15 14 14 14 13 12 12 11 10 10 9 9 9 9 9 8 8 8 9 9 9 10 10 10 10 9 6 10
9 8 13 14 14 15 15 15 15 15 15 15 15 14 14 14 13 13 12 11 11 11 10 9 8 8 8 8 7 7 7 6 6 6 7 7 8 9 10 9 9 6 11
11 8 11 14 14 15 15 15 15 14 14 14 14 13 13 13 12 12 11 10 10 10 9 8 7 7 7 6 5 5 4 4 4 4 4 2 4 7 9 10 10 10 10
12 8 10 14 14 15 15 15 15 14 14 13 13 13 12 12 11 11 11 10 9 8 8 7 6 6 5 5 4 3 2 2 2 2 1 1 2 6 8 10 11 10 10
11 8 10 15 14 15 15 14 14 14 13 13 13 12 12 11 11 10 10 9 8 7 7 6 5 5 4 3 2 2 2 2 1 1 1 1 2 5 6 10 10 10 10
10 8 11 15 15 14 15 15 14 14 13 13 12 12 11 11 10 9 9 8 8 7 6 5 4 3 3 2 1 1 1 1 1 0 1 2 3 5 7 9 11 10 10
9 7 10 15 15 15 15 15 14 14 13 12 12 11 11 10 9 9 8 7 7 6 5 5 4 3 2 1 1 1 1 1 1 1 1 2 3 7 8 9 10 10 10
10 8 8 14 15 14 14 14 14 13 12 12 11 11 10 9 8 8 7 7 6 5 5 4 3 3 2 2 2 2 2 2 1 1 1 2 5 6 7 8 9 9 9
8 7 6 7 10 12 13 13 13 13 12 11 10 10 9 9 8 7 7 6 6 5 4 4 3 3 3 3 3 3 3 2 1 1 2 2 6 7 8 9 9 9 9
7 6 5 4 5 6 7 12 13 13 12 11 11 10 9 8 8 7 6 5 5 5 5 4 4 4 4 4 4 4 3 2 1 1 1 3 7 9 9 10 10 9 9
7 4 4 4 4 3 5 9 10 11 11 10 9 10 8 4 3 4 5 5 5 4 4 4 5 5 5 4 5 4 3 1 1 2 2 5 7 8 9 9 9 9 8
7 5 4 5 4 4 4 4 4 5 5 5 4 4 3 2 2 3 4 6 6 5 5 5 5 5 4 2 3 3 1 2 1 2 3 6 7 8 8 8 8 8 8
7 6 5 5 4 3 2 3 2 2 2 3 3 4 3 2 1 2 1 2 3 4 3 3 3 2 2 2 1 2 2 2 2 2 3 7 7 8 8 8 8 8 8
8 6 5 5 4 4 3 3 3 2 3 3 3 4 3 2 1 1 1 1 1 1 2 2 1 2 2 2 2 3 3 2 2 2 3 7 8 8 9 8 8 8 8
7 6 5 5 4 4 4 3 3 3 3 3 2 3 3 2 2 1 1 1 1 1 1 1 1 2 2 2 2 2 3 3 3 3 3 6 8 8 8 8 8 8 8
7 6 5 5 5 4 4 3 3 3 3 3 2 2 3 2 1 1 1 1 1 1 1 1 1 1 1 2 2 2 2 3 3 3 3 4 7 8 8 7 7 7 8
7 6 6 6 5 5 3 4 3 3 3 3 2 3 3 2 2 1 1 1 1 1 0 0 1 0 1 1 2 2 2 3 3 4 3 3 3 6 7 7 7 7 8
6 5 6 6 6 5 4 3 3 3 3 2 2 2 2 2 2 2 1 1 1 0 0 0 0 0 1 1 1 2 1 1 3 3 3 3 3 3 5 7 7 7 7
6 6 6 5 6 6 5 3 2 2 3 2 2 2 2 2 2 2 1 1 1 0 0 0 0 0 1 1 1 1 1 1 1 2 2 3 3 3 3 5 7 8 8
6 6 5 5 5 4 4 3 2 2 1 1 2 2 2 2 2 2 1 0 1 1 0 0 0 0 0 1 1 1 1 1 1 2 3 3 3 4 4 4 3 4 8
5 6 5 5 5 4 3 3 3 2 1 1 1 2 2 1 2 2 1 1 1 1 1 0 0 1 1 1 1 2 3 2 1 2 2 2 3 3 3 4 3 3 3
6 6 6 6 6 5 4 3 3 3 2 2 1 1 1 2 2 2 2 1 1 1 0 0 0 0 1 0 1 1 2 4 3 2 1 2 2 2 3 4 3 4 4
6 6 6 6 5 5 4 3 3 2 1 1 0 1 1 2 2 2 2 1 1 1 1 1 1 2 1 1 1 2 2 2 3 3 2 2 1 1 2 2 4 4 4
6 5 5 4 4 4 4 5 5 4 2 2 2 1 1 1 1 2 2 1 1 1 1 2 1 2 2 0 1 0 2 2 1 2 3 2 2 2 2 3 3 4 4
5 5 5 5 4 3 4 5 5 3 2 1 1 1 1 1 1 2 2 1 1 1 2 2 1 1 2 2 1 0 0 0 1 1 3 4 3 2 2 2 2 3 4
3 4 4 5 4 4 4 4 4 4 3 2 1 1 1 1 1 1 2 2 2 2 2 2 2 2 2 2 1 1 1 1 1 1 2 3 3 3 2 2 2 2 3
Wind_Direction
151 157 147 136 130 127 125 122 118 115 112 109 107 105 104 104 106 109 112 114 115 115 115 114 111 109 108 110 111 112 113 115 122 127 132 133 133 135 137 137 137 137 137
150 155 147 138 133 131 129 126 124 121 118 116 114 112 110 109 110 112 113 115 117 118 118 117 115 112 110 111 111 111 113 115 121 130 133 136 141 142 141 139 139 143 143
141 149 145 139 136 134 132 131 129 126 124 122 120 119 118 117 117 116 117 117 118 120 121 121 119 116 113 114 114 114 113 116 128 135 131 126 144 151 149 147 146 144 145
140 145 145 141 137 136 135 134 134 132 131 129 127 127 126 124 121 121 120 119 118 119 121 122 121 119 119 121 118 116 117 119 129 142 124 153 170 162 160 158 153 149 148
135 142 148 143 140 139 139 138 138 137 136 135 134 134 131 128 126 124 124 125 126 125 126 127 125 124 123 119 120 125 135 147 157 161 166 201 191 181 169 161 158 156 154
136 144 149 144 142 142 144 144 142 141 140 140 139 138 136 134 132 133 133 131 130 130 135 138 138 138 139 143 149 155 162 156 167 184 209 211 184 182 170 166 165 163 161
140 147 150 146 147 147 148 149 147 146 147 146 144 142 142 140 140 142 141 138 138 140 146 152 154 155 167 194 219 222 224 218 177 194 208 192 181 179 178 174 169 167 168
144 147 149 150 151 152 151 152 151 151 151 149 148 148 148 147 147 148 147 149 149 152 157 165 174 180 203 226 235 236 240 249 177 193 191 178 176 179 181 177 170 166 167
137 142 146 154 154 154 154 155 156 156 156 153 153 153 153 154 155 154 157 163 164 168 178 190 207 221 232 238 241 247 250 240 207 196 187 179 176 182 180 173 168 167 167
124 132 138 143 145 152 158 161 159 159 159 156 156 156 158 162 166 167 169 173 180 194 204 213 228 243 250 251 254 255 256 253 199 210 203 195 185 187 179 171 169 169 171
124 127 141 136 134 147 160 168 163 163 162 160 162 164 163 165 171 175 183 187 196 207 219 234 245 255 261 264 267 262 257 199 199 208 205 203 197 189 178 174 172 171 175
140 144 145 141 141 148 163 155 162 167 162 160 162 165 157 154 182 187 205 205 211 222 237 252 262 267 270 266 267 261 216 201 209 206 204 203 200 190 183 180 179 180 183
155 151 149 150 150 152 143 148 155 155 150 152 157 158 151 153 181 192 197 224 233 237 247 269 273 267 261 249 231 224 215 203 209 209 206 202 199 195 191 188 189 187 189
143 141 140 142 145 148 138 146 149 146 155 161 168 161 151 152 167 187 201 214 229 254 249 257 261 260 259 244 222 223 216 205 204 198 205 202 199 199 202 200 197 197 197
136 141 147 143 144 143 133 142 142 147 158 158 155 158 155 154 171 182 203 192 225 250 252 270 274 269 270 264 248 229 212 205 202 199 202 202 201 201 203 202 205 207 203
142 152 159 153 147 135 135 142 144 142 143 143 134 137 143 146 147 162 172 172 211 228 232 243 257 264 262 258 264 248 227 212 211 206 201 205 201 197 202 205 209 212 210
149 157 161 154 146 139 147 154 141 138 134 134 140 145 145 140 143 155 164 199 224 225 215 347 309 346 305 307 292 265 229 217 210 204 196 199 202 200 201 208 210 209 209
144 152 156 157 150 148 156 149 133 136 134 144 147 151 160 159 153 150 151 207 225 169 133 172 8 20 324 314 299 286 270 241 217 204 192 192 193 200 206 205 205 206 209
148 158 159 150 155 157 151 137 124 128 136 145 145 161 175 170 156 145 165 210 190 136 160 231 97 170 266 299 278 283 299 268 231 207 202 200 200 200 204 207 208 210 212
152 160 154 147 154 150 136 118 104 96 108 130 154 174 164 168 161 143 158 211 148 136 47 118 173 309 230 263 285 315 306 279 254 222 219 211 211 214 209 212 211 216 217
156 152 154 151 164 155 149 152 147 148 155 154 172 170 154 150 151 142 154 170 153 156 204 199 89 11 334 7 33 343 328 314 282 255 230 210 220 227 215 211 210 211 225
172 166 162 169 172 169 166 163 160 152 167 174 178 166 173 159 169 162 164 182 180 168 161 104 111 81 307 48 120 62 347 336 323 298 274 244 237 229 220 221 216 217 218
172 175 172 176 169 168 152 132 123 95 73 77 113 210 221 182 179 178 172 178 175 174 193 199 170 158 235 303 132 142 146 256 306 315 299 286 273 234 234 226 217 221 215
177 174 166 162 161 157 146 145 151 159 170 193 187 206 240 208 192 194 182 177 179 187 202 212 180 170 157 226 305 211 180 176 179 307 316 314 291 260 250 237 226 226 221
167 165 161 155 156 155 150 155 156 156 167 167 156 171 209 230 203 203 186 176 188 195 204 197 164 153 160 170 194 238 335 39 169 185 285 307 316 291 267 251 241 238 229
147 149 151 152 158 157 154 157 155 157 157 151 170 182 211 233 246 230 199 193 202 204 204 201 193 181 187 177 182 174 174 181 213 196 239 274 286 286 282 272 256 248 241